FW1312 Weather Reports


Display with metric or nautical units.
time (UTC)temp
F
wind
direction
speed
MPH
gust
MPH
rain 1hr
in
rain 24hr
in
rain mn
in
humidity
%
barometer
mb
20260902223051 87 108 5.0 13.0 0.00 0.02 0.02 67 1009.8
20260902221556 87 55 6.0 13.0 0.00 0.02 0.02 67 1009.6
20260902220035 87 66 5.0 13.0 0.00 0.02 0.02 66 1009.6
20260902214528 87 61 3.0 15.0 0.00 0.02 0.02 65 1009.6
20260902213107 87 118 4.0 7.0 0.02 0.02 0.02 64 1009.6
20260902211535 87 98 3.0 7.0 0.02 0.02 0.02 62 1009.8
20260902210056 88 63 3.0 4.0 0.02 0.02 0.02 61 1009.9
20260902204515 91 295 8.0 16.0 0.02 0.02 0.02 61 1010.4
20260902203020 91 58 4.0 7.0 0.00 0.00 0.00 62 1010.2
20260902201540 93 76 3.0 7.0 0.00 0.00 0.00 63 1010.2
20260902200034 93 259 3.0 15.0 0.00 0.00 0.00 65 1010.3
20260902194518 94 266 3.0 9.0 0.00 0.00 0.00 66 1010.6
20260902193010 92 254 5.0 11.0 0.00 0.00 0.00 68 1010.8
20260902191603 92 273 6.0 16.0 0.00 0.00 0.00 68 1011.1
20260902190015 92 258 6.0 15.0 0.00 0.00 0.00 70 1011.3
20260902184616 91 284 8.0 14.0 0.00 0.00 0.00 71 1011.5
20260902183015 91 257 5.0 16.0 0.00 0.00 0.00 72 1011.7
20260902181501 92 257 6.0 18.0 0.00 0.00 0.00 74 1011.9
20260902180033 91 268 10.0 18.0 0.00 0.00 0.00 75 1012.3
20260902174517 91 260 6.0 20.0 0.00 0.00 0.00 76 1012.6
20260902173002 91 257 6.0 17.0 0.00 0.00 0.00 78 1012.8
20260902171542 90 275 8.0 14.0 0.00 0.00 0.00 78 1013.1
20260902170015 89 254 6.0 13.0 0.00 0.00 0.00 80 1013.4
20260902164603 88 311 5.0 11.0 0.00 0.00 0.00 81 1013.6
20260902163030 88 288 5.0 9.0 0.00 0.00 0.00 81 1013.8
20260902161526 87 235 4.0 9.0 0.00 0.00 0.00 82 1013.9
20260902160040 85 250 5.0 12.0 0.00 0.00 0.00 82 1014.0
20260902154528 85 284 2.0 9.0 0.00 0.00 0.00 82 1014.0
20260902153014 85 212 4.0 11.0 0.00 0.00 0.00 83 1013.9
20260902151509 83 277 6.0 11.0 0.00 0.00 0.00 83 1013.8
20260902150038 82 323 5.0 9.0 0.00 0.00 0.00 83 1014.0
20260902144538 81 283 2.0 7.0 0.00 0.00 0.00 83 1014.0
20260902143055 79 338 5.0 9.0 0.00 0.00 0.00 83 1014.1
20260902141523 78 325 1.0 4.0 0.00 0.00 0.00 82 1014.0
20260902140006 77 323 1.0 4.0 0.00 0.00 0.00 82 1014.1
20260902134514 77 325 2.0 4.0 0.00 0.00 0.00 81 1014.1
20260902133005 77 326 0.0 4.0 0.00 0.00 0.00 81 1014.1
20260902131545 76 303 1.0 4.0 0.00 0.00 0.00 81 1014.0
20260902130024 76 306 2.0 4.0 0.00 0.00 0.00 81 1013.6
20260902124610 76 269 3.0 6.0 0.00 0.00 0.00 80 1013.4
20260902123042 75 272 2.0 4.0 0.00 0.00 0.00 80 1013.2
20260902121604 75 256 2.0 4.0 0.00 0.00 0.00 80 1013.1
20260902120018 75 255 2.0 6.0 0.00 0.00 0.00 79 1013.1
20260902114521 75 258 2.0 4.0 0.00 0.00 0.00 79 1013.0
20260902113011 75 325 2.0 4.0 0.00 0.00 0.00 79 1013.0
20260902031501 82 90 0.0 0.0 0.00 0.00 0.00 62 1013.1
20260902030040 82 90 0.0 2.0 0.00 0.00 0.00 62 1013.0
20260902024602 82 90 1.0 3.0 0.00 0.00 0.00 61 1012.9
20260902023046 83 90 1.0 2.0 0.00 0.00 0.00 60 1012.7
20260902021525 83 90 0.0 1.0 0.00 0.00 0.00 59 1012.5
20260902020002 84 90 1.0 4.0 0.00 0.00 0.00 59 1012.2
20260902014549 84 95 2.0 6.0 0.00 0.00 0.00 58 1012.1
20260902013025 85 129 4.0 7.0 0.00 0.00 0.00 57 1012.2
20260902011604 86 94 4.0 9.0 0.00 0.00 0.00 56 1012.1
20260902010109 86 54 5.0 12.0 0.00 0.00 0.00 55 1012.2
20260902004532 87 97 5.0 16.0 0.00 0.00 0.00 54 1012.0
20260902003029 88 149 5.0 13.0 0.00 0.00 0.00 53 1011.8
20260902001517 89 82 8.0 18.0 0.00 0.00 0.00 52 1011.7
20260902000043 91 111 9.0 17.0 0.00 0.00 0.00 51 1011.5
20260901234559 92 88 12.0 21.0 0.00 0.00 0.00 51 1011.4
20260901233034 94 96 8.0 15.0 0.00 0.00 0.00 51 1011.2
20260901231541 95 96 5.0 11.0 0.00 0.00 0.00 52 1011.2
20260901230036 94 105 6.0 11.0 0.00 0.00 0.00 52 1011.2
20260901224539 94 101 5.0 11.0 0.00 0.00 0.00 52 1011.3